Location: Sweet Grass
(48.9965°N, 111.9649°W)
Time: 07:09:08
(UTC+00:00)

DIWATA 2B (PO-101) - Pass Details

Date: 04 April 2023
Orbit: 581 x 594 km, 98.0° (Epoch: 03 June)

Event Time Altitude Azimuth Distance (km) Brightness Sun altitude
Exits shadow 08:36:24 18° 49° (NE) 1,464 ? -33.5°
Drops below altitude 10° 08:38:38 10° 17° (NNE) 1,912 ? -33.4°
Sets 08:41:18 0° 359° (N) 2,819 ? -33.2°
